| time (UTC) | temp F | wind direction | speed MPH | gust MPH | rain 1hr in | rain 24hr in | rain mn in | humidity % | barometer mb |
| 20260505022508 | 61 | 137 | 0.0 | 0.0 | 0.00 | 0.00 | 0.00 | 61 | 1012.1 |
| 20260505022018 | 61 | 137 | 0.0 | 0.0 | 0.00 | 0.00 | 0.00 | 61 | 1012.2 |
| 20260505020508 | 61 | 137 | 0.0 | 0.0 | 0.00 | 0.00 | 0.00 | 60 | 1012.2 |
| 20260505020018 | 61 | 137 | 0.0 | 2.0 | 0.00 | 0.00 | 0.00 | 59 | 1012.2 |
| 20260505015508 | 61 | 137 | 0.0 | 2.0 | 0.00 | 0.00 | 0.00 | 59 | 1012.2 |
| 20260505014508 | 62 | 134 | 0.0 | 1.0 | 0.00 | 0.00 | 0.00 | 59 | 1011.9 |
| 20260505014026 | 62 | 134 | 0.0 | 1.0 | 0.00 | 0.00 | 0.00 | 59 | 1012.0 |
| 20260505013508 | 62 | 132 | 0.0 | 0.0 | 0.00 | 0.00 | 0.00 | 59 | 1012.1 |
| 20260505013010 | 63 | 132 | 0.0 | 0.0 | 0.00 | 0.00 | 0.00 | 59 | 1012.2 |
| 20260505012010 | 63 | 132 | 0.0 | 0.0 | 0.00 | 0.00 | 0.00 | 58 | 1012.0 |
| 20260505011510 | 63 | 132 | 0.0 | 1.0 | 0.00 | 0.00 | 0.00 | 58 | 1011.9 |
| 20260505011018 | 63 | 132 | 0.0 | 1.0 | 0.00 | 0.00 | 0.00 | 58 | 1011.9 |
| 20260505010019 | 63 | 152 | 0.0 | 1.0 | 0.00 | 0.00 | 0.00 | 57 | 1011.7 |
| 20260505004509 | 63 | 136 | 0.0 | 4.0 | 0.00 | 0.00 | 0.00 | 57 | 1011.6 |
| 20260505004018 | 63 | 139 | 0.0 | 4.0 | 0.00 | 0.00 | 0.00 | 56 | 1011.6 |
| 20260505003508 | 63 | 159 | 0.0 | 0.0 | 0.00 | 0.00 | 0.00 | 55 | 1011.4 |
| 20260505003022 | 63 | 159 | 0.0 | 0.0 | 0.00 | 0.00 | 0.00 | 54 | 1011.3 |
| 20260505002508 | 64 | 159 | 0.0 | 0.0 | 0.00 | 0.00 | 0.00 | 53 | 1011.3 |
| 20260505002019 | 64 | 24 | 0.0 | 0.0 | 0.00 | 0.00 | 0.00 | 53 | 1011.2 |
| 20260505000508 | 66 | 24 | 0.0 | 0.0 | 0.00 | 0.00 | 0.00 | 48 | 1011.2 |
| 20260505000024 | 67 | 24 | 0.0 | 1.0 | 0.00 | 0.00 | 0.00 | 48 | 1011.0 |
| 20260504235508 | 67 | 24 | 0.0 | 2.0 | 0.00 | 0.00 | 0.00 | 48 | 1011.0 |
| 20260504235024 | 68 | 24 | 0.0 | 3.0 | 0.00 | 0.00 | 0.00 | 46 | 1010.9 |
| 20260504234510 | 68 | 50 | 1.0 | 4.0 | 0.00 | 0.00 | 0.00 | 47 | 1010.9 |
| 20260504234010 | 68 | 235 | 0.0 | 4.0 | 0.00 | 0.00 | 0.00 | 46 | 1010.9 |
| 20260504233508 | 69 | 216 | 1.0 | 3.0 | 0.00 | 0.00 | 0.00 | 45 | 1011.0 |
| 20260504233011 | 69 | 227 | 1.0 | 7.0 | 0.00 | 0.00 | 0.00 | 44 | 1010.9 |
| 20260504232508 | 69 | 240 | 1.0 | 6.0 | 0.00 | 0.00 | 0.00 | 44 | 1010.9 |
| 20260504232009 | 70 | 266 | 2.0 | 6.0 | 0.00 | 0.00 | 0.00 | 43 | 1010.9 |
| 20260504231008 | 70 | 269 | 3.0 | 6.0 | 0.00 | 0.00 | 0.00 | 42 | 1010.7 |
| 20260504230508 | 70 | 178 | 2.0 | 6.0 | 0.00 | 0.00 | 0.00 | 43 | 1010.8 |
| 20260504225507 | 70 | 71 | 1.0 | 6.0 | 0.00 | 0.00 | 0.00 | 43 | 1010.8 |
| 20260504225008 | 70 | 267 | 3.0 | 8.0 | 0.00 | 0.00 | 0.00 | 42 | 1010.7 |
| 20260504224509 | 70 | 208 | 2.0 | 8.0 | 0.00 | 0.00 | 0.00 | 42 | 1010.7 |
| 20260504224008 | 71 | 247 | 2.0 | 5.0 | 0.00 | 0.00 | 0.00 | 42 | 1010.7 |
| 20260504223507 | 71 | 165 | 2.0 | 5.0 | 0.00 | 0.00 | 0.00 | 41 | 1010.7 |
| 20260504223009 | 71 | 220 | 1.0 | 5.0 | 0.00 | 0.00 | 0.00 | 41 | 1010.7 |
| 20260504222507 | 71 | 186 | 2.0 | 5.0 | 0.00 | 0.00 | 0.00 | 41 | 1010.8 |
| 20260504222009 | 71 | 132 | 1.0 | 9.0 | 0.00 | 0.00 | 0.00 | 41 | 1010.9 |
| 20260504221508 | 71 | 248 | 3.0 | 9.0 | 0.00 | 0.00 | 0.00 | 40 | 1010.9 |
| 20260504221010 | 71 | 217 | 3.0 | 7.0 | 0.00 | 0.00 | 0.00 | 39 | 1010.9 |
| 20260504220507 | 71 | 124 | 2.0 | 6.0 | 0.00 | 0.00 | 0.00 | 40 | 1010.9 |
| 20260504220011 | 72 | 137 | 2.0 | 6.0 | 0.00 | 0.00 | 0.00 | 41 | 1010.9 |
| 20260504215507 | 72 | 262 | 2.0 | 9.0 | 0.00 | 0.00 | 0.00 | 40 | 1010.9 |
| 20260504215008 | 72 | 163 | 3.0 | 9.0 | 0.00 | 0.00 | 0.00 | 41 | 1011.1 |
| 20260504214008 | 72 | 250 | 4.0 | 12.0 | 0.00 | 0.00 | 0.00 | 39 | 1011.1 |
| 20260504213507 | 72 | 25 | 2.0 | 9.0 | 0.00 | 0.00 | 0.00 | 39 | 1011.2 |
| 20260504213009 | 72 | 294 | 4.0 | 9.0 | 0.00 | 0.00 | 0.00 | 38 | 1011.2 |
| 20260504212507 | 72 | 355 | 2.0 | 8.0 | 0.00 | 0.00 | 0.00 | 40 | 1011.2 |
| 20260504212008 | 72 | 269 | 2.0 | 9.0 | 0.00 | 0.00 | 0.00 | 40 | 1011.1 |
| 20260504211509 | 72 | 288 | 4.0 | 9.0 | 0.00 | 0.00 | 0.00 | 39 | 1011.2 |
| 20260504211008 | 72 | 93 | 1.0 | 10.0 | 0.00 | 0.00 | 0.00 | 42 | 1011.2 |
| 20260504205507 | 72 | 213 | 3.0 | 10.0 | 0.00 | 0.00 | 0.00 | 41 | 1011.3 |
| 20260504205008 | 73 | 268 | 3.0 | 10.0 | 0.00 | 0.00 | 0.00 | 38 | 1011.3 |
| 20260504204508 | 72 | 333 | 1.0 | 5.0 | 0.00 | 0.00 | 0.00 | 40 | 1011.2 |
| 20260504204008 | 72 | 201 | 2.0 | 13.0 | 0.00 | 0.00 | 0.00 | 39 | 1011.2 |
| 20260504203507 | 72 | 267 | 3.0 | 13.0 | 0.00 | 0.00 | 0.00 | 41 | 1011.3 |
| 20260504203010 | 72 | 185 | 5.0 | 10.0 | 0.00 | 0.00 | 0.00 | 41 | 1011.4 |
| 20260504202507 | 72 | 69 | 1.0 | 7.0 | 0.00 | 0.00 | 0.00 | 42 | 1011.4 |
| 20260504202008 | 72 | 292 | 4.0 | 9.0 | 0.00 | 0.00 | 0.00 | 40 | 1011.4 |
| 20260504201509 | 72 | 258 | 3.0 | 11.0 | 0.00 | 0.00 | 0.00 | 41 | 1011.5 |
| 20260504201009 | 72 | 81 | 4.0 | 9.0 | 0.00 | 0.00 | 0.00 | 39 | 1011.6 |
| 20260504195507 | 72 | 208 | 2.0 | 11.0 | 0.00 | 0.00 | 0.00 | 40 | 1011.7 |
| 20260504195009 | 72 | 66 | 3.0 | 12.0 | 0.00 | 0.00 | 0.00 | 40 | 1011.7 |
| 20260504194508 | 72 | 272 | 3.0 | 12.0 | 0.00 | 0.00 | 0.00 | 39 | 1011.6 |
| 20260504194008 | 73 | 284 | 2.0 | 8.0 | 0.00 | 0.00 | 0.00 | 40 | 1011.7 |
| 20260504193507 | 72 | 240 | 3.0 | 8.0 | 0.00 | 0.00 | 0.00 | 41 | 1011.7 |
| 20260504193009 | 72 | 144 | 2.0 | 10.0 | 0.00 | 0.00 | 0.00 | 37 | 1011.7 |
| 20260504192507 | 72 | 293 | 5.0 | 10.0 | 0.00 | 0.00 | 0.00 | 38 | 1012.0 |
| 20260504191509 | 72 | 5 | 4.0 | 10.0 | 0.00 | 0.00 | 0.00 | 40 | 1012.1 |
| 20260504191009 | 72 | 276 | 4.0 | 15.0 | 0.00 | 0.00 | 0.00 | 37 | 1012.0 |
| 20260504190010 | 72 | 125 | 3.0 | 7.0 | 0.00 | 0.00 | 0.00 | 38 | 1012.0 |
| 20260504185507 | 71 | 98 | 3.0 | 8.0 | 0.00 | 0.00 | 0.00 | 38 | 1012.1 |
| 20260504185009 | 71 | 319 | 2.0 | 9.0 | 0.00 | 0.00 | 0.00 | 40 | 1012.1 |
| 20260504184507 | 71 | 182 | 5.0 | 9.0 | 0.00 | 0.00 | 0.00 | 39 | 1012.1 |
| 20260504184009 | 70 | 163 | 2.0 | 6.0 | 0.00 | 0.00 | 0.00 | 40 | 1012.3 |
| 20260504183507 | 71 | 130 | 3.0 | 7.0 | 0.00 | 0.00 | 0.00 | 40 | 1012.4 |
| 20260504183008 | 71 | 84 | 3.0 | 6.0 | 0.00 | 0.00 | 0.00 | 41 | 1012.4 |
| 20260504182507 | 71 | 231 | 4.0 | 15.0 | 0.00 | 0.00 | 0.00 | 40 | 1012.4 |
| 20260504182010 | 70 | 84 | 6.0 | 15.0 | 0.00 | 0.00 | 0.00 | 40 | 1012.6 |
| 20260504181507 | 71 | 321 | 3.0 | 10.0 | 0.00 | 0.00 | 0.00 | 44 | 1012.8 |
| 20260504180508 | 71 | 260 | 3.0 | 6.0 | 0.00 | 0.00 | 0.00 | 45 | 1013.0 |
| 20260504180009 | 70 | 181 | 3.0 | 10.0 | 0.00 | 0.00 | 0.00 | 41 | 1013.0 |
| 20260504175507 | 71 | 291 | 4.0 | 10.0 | 0.00 | 0.00 | 0.00 | 40 | 1013.0 |
| 20260504175009 | 71 | 329 | 5.0 | 10.0 | 0.00 | 0.00 | 0.00 | 38 | 1013.1 |
| 20260504174507 | 70 | 296 | 2.0 | 6.0 | 0.00 | 0.00 | 0.00 | 40 | 1013.1 |
| 20260504174009 | 70 | 183 | 4.0 | 9.0 | 0.00 | 0.00 | 0.00 | 41 | 1013.3 |
| 20260504173507 | 70 | 82 | 3.0 | 10.0 | 0.00 | 0.00 | 0.00 | 38 | 1013.3 |
| 20260504172509 | 70 | 281 | 3.0 | 8.0 | 0.00 | 0.00 | 0.00 | 42 | 1013.3 |
| 20260504172008 | 70 | 244 | 2.0 | 9.0 | 0.00 | 0.00 | 0.00 | 39 | 1013.4 |
| 20260504171507 | 69 | 28 | 3.0 | 9.0 | 0.00 | 0.00 | 0.00 | 42 | 1013.6 |
| 20260504170507 | 71 | 316 | 4.0 | 8.0 | 0.00 | 0.00 | 0.00 | 41 | 1013.6 |
| 20260504151008 | 66 | 286 | 3.0 | 8.0 | 0.00 | 0.00 | 0.00 | 46 | 1014.9 |
| 20260504150509 | 66 | 317 | 2.0 | 7.0 | 0.00 | 0.00 | 0.00 | 49 | 1014.9 |
| 20260504140507 | 62 | 200 | 2.0 | 6.0 | 0.00 | 0.00 | 0.00 | 57 | 1014.9 |
| 20260504130507 | 57 | 98 | 2.0 | 6.0 | 0.00 | 0.00 | 0.00 | 68 | 1015.4 |
| 20260504110507 | 42 | 90 | 0.0 | 0.0 | 0.00 | 0.00 | 0.00 | 89 | 1016.0 |
| 20260504100508 | 42 | 90 | 0.0 | 2.0 | 0.00 | 0.00 | 0.00 | 87 | 1016.1 |
| 20260504082007 | 42 | 178 | 0.0 | 0.0 | 0.00 | 0.00 | 0.00 | 85 | 1016.1 |
| 20260504081508 | 42 | 178 | 0.0 | 2.0 | 0.00 | 0.00 | 0.00 | 85 | 1016.0 |
| 20260504081007 | 42 | 178 | 0.0 | 2.0 | 0.00 | 0.00 | 0.00 | 85 | 1016.0 |
| 20260504080506 | 42 | 178 | 1.0 | 2.0 | 0.00 | 0.00 | 0.00 | 85 | 1015.9 |
| 20260504050506 | 43 | 292 | 0.0 | 0.0 | 0.00 | 0.00 | 0.00 | 75 | 1016.0 |
| 20260504050009 | 43 | 292 | 0.0 | 0.0 | 0.00 | 0.00 | 0.00 | 75 | 1016.1 |
| 20260504045506 | 43 | 292 | 0.0 | 0.0 | 0.00 | 0.00 | 0.00 | 74 | 1016.0 |
| 20260504045007 | 43 | 292 | 0.0 | 0.0 | 0.00 | 0.00 | 0.00 | 74 | 1016.1 |
| 20260504044509 | 43 | 292 | 0.0 | 0.0 | 0.00 | 0.00 | 0.00 | 74 | 1015.9 |
| 20260504044009 | 43 | 292 | 0.0 | 0.0 | 0.00 | 0.00 | 0.00 | 74 | 1015.9 |
| 20260504043508 | 43 | 292 | 0.0 | 0.0 | 0.00 | 0.00 | 0.00 | 73 | 1015.9 |
| 20260504043010 | 43 | 292 | 0.0 | 0.0 | 0.00 | 0.00 | 0.00 | 73 | 1015.8 |
| 20260504042508 | 43 | 292 | 0.0 | 0.0 | 0.00 | 0.00 | 0.00 | 73 | 1015.7 |
| 20260504041509 | 43 | 292 | 0.0 | 0.0 | 0.00 | 0.00 | 0.00 | 73 | 1015.6 |
| 20260504040508 | 43 | 292 | 0.0 | 1.0 | 0.00 | 0.00 | 0.00 | 72 | 1015.6 |
| 20260504040019 | 43 | 292 | 0.0 | 1.0 | 0.00 | 0.00 | 0.00 | 72 | 1015.5 |
| 20260504035008 | 43 | 292 | 0.0 | 0.0 | 0.00 | 0.00 | 0.00 | 72 | 1015.4 |
| 20260504034010 | 44 | 292 | 0.0 | 0.0 | 0.00 | 0.00 | 0.00 | 71 | 1015.5 |
| 20260504033508 | 44 | 292 | 0.0 | 0.0 | 0.00 | 0.00 | 0.00 | 70 | 1015.4 |
| 20260504033008 | 44 | 292 | 0.0 | 0.0 | 0.00 | 0.00 | 0.00 | 69 | 1015.3 |
| 20260504032509 | 44 | 292 | 0.0 | 0.0 | 0.00 | 0.00 | 0.00 | 69 | 1015.4 |
| 20260504032008 | 44 | 292 | 0.0 | 0.0 | 0.00 | 0.00 | 0.00 | 69 | 1015.4 |
| 20260504031508 | 44 | 292 | 0.0 | 0.0 | 0.00 | 0.00 | 0.00 | 69 | 1015.3 |
| 20260504031010 | 45 | 292 | 0.0 | 0.0 | 0.00 | 0.00 | 0.00 | 68 | 1015.3 |
| 20260504030508 | 45 | 292 | 0.0 | 0.0 | 0.00 | 0.00 | 0.00 | 68 | 1015.3 |
| 20260504030010 | 45 | 292 | 0.0 | 0.0 | 0.00 | 0.00 | 0.00 | 67 | 1015.2 |
| 20260504025509 | 45 | 292 | 0.0 | 0.0 | 0.00 | 0.00 | 0.00 | 65 | 1015.2 |
| 20260504025009 | 46 | 292 | 0.0 | 0.0 | 0.00 | 0.00 | 0.00 | 65 | 1015.3 |
| 20260504024009 | 46 | 292 | 0.0 | 0.0 | 0.00 | 0.00 | 0.00 | 64 | 1015.4 |
| 20260504023508 | 46 | 292 | 0.0 | 0.0 | 0.00 | 0.00 | 0.00 | 64 | 1015.4 |
| 20260504023009 | 47 | 292 | 0.0 | 0.0 | 0.00 | 0.00 | 0.00 | 64 | 1015.3 |